Theta_e
313 316 319 319 321 321 321 321 319 320 322 324 325 326 326 328 326 327 334 341 342 343 341 340 340 341 343 341 336 333 334 334 335 335 328 331 336 336 335 336 335 334 334 333 332 331 330 329 329
318 319 320 320 322 321 321 320 320 320 320 323 323 325 327 328 331 332 333 336 342 343 341 341 339 340 343 344 340 336 338 339 337 330 330 335 336 335 335 336 334 332 332 331 330 329 329 328 326
317 318 321 321 321 320 320 320 320 320 319 322 323 326 327 328 332 333 335 333 337 339 342 341 340 339 344 344 341 338 338 338 333 331 334 335 336 336 336 334 332 331 331 330 330 328 326 321 321
316 317 318 321 321 320 320 320 320 320 323 323 325 326 327 327 329 333 334 333 335 339 343 341 338 338 343 344 342 340 341 336 334 334 335 335 334 334 334 332 331 330 330 329 328 326 317 315 315
317 318 318 319 320 320 320 319 319 320 322 325 326 325 327 327 327 333 335 334 336 338 341 338 337 337 340 343 342 341 338 338 335 336 335 334 334 333 331 330 330 330 329 328 327 317 311 311 312
319 318 318 318 319 319 319 319 319 322 323 324 326 327 327 330 331 331 334 334 335 335 337 333 329 328 336 342 343 341 340 338 335 335 333 333 333 330 329 330 330 330 329 324 316 312 312 311 311
318 318 317 317 318 319 319 319 322 321 321 323 326 327 326 330 332 334 333 334 335 334 333 331 323 326 326 336 342 340 339 336 335 334 333 331 329 328 329 330 330 332 328 322 315 312 313 312 312
318 318 317 316 317 319 319 319 321 322 322 327 327 326 327 331 333 333 333 334 333 332 332 330 325 325 330 331 334 334 335 334 336 334 333 330 327 326 330 332 332 331 325 324 316 314 315 313 313
317 318 319 317 317 317 319 319 320 323 325 327 328 328 329 332 332 332 332 335 333 328 330 330 325 322 327 327 326 329 333 335 335 334 334 331 332 331 332 332 331 327 323 324 316 315 315 314 314
317 318 318 318 317 318 319 320 320 322 323 326 327 328 329 332 332 332 333 333 334 334 328 329 327 326 327 327 330 326 328 333 335 333 333 330 332 331 331 331 327 322 322 324 317 316 316 317 318
317 318 318 318 317 318 318 319 320 322 322 322 323 324 329 333 333 333 333 333 333 332 332 328 331 331 331 331 332 331 328 330 333 332 330 331 331 331 330 328 325 328 325 325 321 319 320 321 320
318 318 318 318 318 318 318 319 320 321 322 322 327 328 331 334 334 332 334 333 333 332 331 330 329 331 331 330 331 330 330 331 332 331 331 332 332 331 327 325 326 328 327 326 324 322 323 322 320
319 318 317 317 317 317 318 319 320 320 321 322 327 333 333 332 333 334 332 330 331 331 329 330 330 330 329 331 331 330 330 330 331 331 329 331 331 329 325 324 326 326 326 326 325 324 323 321 319
317 317 317 317 317 318 319 319 319 321 321 324 331 333 334 334 334 332 330 329 329 327 328 329 329 329 328 328 328 329 329 330 332 332 330 330 329 326 324 324 324 326 326 326 325 323 320 317 316
317 317 317 318 318 318 318 319 319 320 324 327 331 333 333 332 331 330 329 328 329 328 327 327 326 327 325 325 326 328 329 329 329 331 329 328 327 325 324 323 322 322 323 323 323 320 317 314 313
318 318 320 319 318 318 320 320 322 323 325 324 328 332 333 332 331 328 327 328 328 325 325 325 325 325 325 325 324 326 328 327 327 329 329 326 325 323 322 322 321 320 321 321 319 317 315 314 313
318 319 320 320 319 318 321 321 324 324 324 325 326 330 332 332 330 328 327 327 326 327 323 324 325 323 325 325 325 326 327 327 326 328 329 326 324 323 323 322 321 319 318 318 317 316 316 315 314
320 320 320 319 319 320 320 322 322 322 321 323 325 329 331 331 330 327 326 326 325 325 322 323 323 323 324 324 325 325 326 327 327 327 326 325 323 322 321 321 321 319 317 317 316 316 316 316 315
318 318 319 319 319 320 320 318 319 322 322 323 325 329 331 331 329 327 325 325 323 324 322 322 322 322 324 324 324 324 324 326 326 326 326 325 323 321 320 321 321 320 319 318 317 317 316 316 314
318 318 318 318 318 319 319 319 320 321 322 323 324 327 330 331 330 327 325 325 324 323 323 321 321 322 322 323 323 323 323 324 325 324 323 324 322 320 320 321 321 320 320 319 318 317 316 315 312
317 317 318 318 319 319 320 319 318 319 323 324 325 326 327 330 330 328 325 324 324 323 323 323 322 321 322 323 323 323 322 322 322 322 323 323 323 322 320 320 320 321 320 320 318 317 317 316 312
316 316 317 317 318 320 319 319 317 321 322 322 322 327 328 329 329 329 327 324 323 323 324 323 322 320 321 322 322 322 321 319 322 322 320 319 320 321 321 322 321 321 321 321 319 318 318 317 315
316 316 316 318 319 320 320 321 318 320 323 323 322 323 328 330 330 329 328 324 323 322 323 322 322 319 320 321 321 321 320 319 321 323 322 321 320 322 321 320 321 320 321 321 321 319 319 319 319
317 319 320 321 322 324 322 320 320 321 324 322 322 324 328 329 329 329 327 325 325 323 323 321 322 320 320 321 321 319 320 319 320 321 322 323 322 321 319 317 318 318 321 321 322 322 321 320 319
316 320 323 326 325 324 320 321 320 322 323 323 323 323 327 329 330 330 328 326 325 324 323 322 321 320 320 321 321 320 320 320 319 320 321 321 320 319 317 317 317 318 318 321 322 323 323 323 321
317 320 321 321 324 324 321 324 323 323 323 322 324 325 326 329 330 330 328 326 325 324 322 322 322 321 319 318 319 319 320 320 320 321 320 320 319 318 318 319 317 315 316 319 320 321 323 323 322
316 318 317 318 319 322 324 324 324 323 323 323 323 322 325 328 329 330 329 326 324 324 323 322 322 321 321 320 319 319 319 319 320 321 320 319 319 319 320 320 321 321 320 321 322 322 323 323 322
314 315 319 320 321 321 320 321 323 321 321 322 323 323 324 326 328 329 329 327 325 324 323 322 322 322 321 321 321 320 319 319 319 320 320 320 319 319 319 320 320 320 320 320 321 321 321 321 321
312 315 316 317 320 322 322 321 321 321 321 322 323 323 324 326 327 328 329 327 325 324 323 321 321 321 321 322 322 321 321 320 320 319 319 319 319 319 319 319 319 320 320 320 320 320 321 321 321
318 316 315 318 317 320 321 321 320 321 322 323 323 324 322 325 327 327 328 328 326 325 324 321 319 320 320 321 321 321 321 321 320 320 319 319 318 319 319 319 319 320 319 320 320 321 321 320 320
Wind_Speed
6 4 4 5 5 6 3 4 3 5 4 1 3 6 9 12 8 9 2 3 4 11 18 21 22 23 30 39 43 44 41 43 41 36 37 38 36 37 31 34 33 31 28 27 27 28 26 25 25
7 5 6 3 6 7 5 2 5 2 4 5 7 8 9 10 6 5 4 4 6 8 17 21 26 25 29 37 42 43 42 42 40 39 37 36 37 36 36 34 34 32 31 27 26 27 26 25 26
5 5 5 4 4 5 3 3 2 4 5 8 4 5 6 4 4 3 1 3 7 8 16 24 26 28 34 38 43 44 44 44 43 41 39 39 38 39 39 35 34 34 31 29 25 26 25 27 28
6 6 4 8 8 3 4 1 2 5 1 4 5 10 4 9 2 3 1 2 4 7 13 24 29 33 35 39 43 45 42 44 44 42 42 42 40 39 37 36 36 34 31 29 26 26 26 27 27
5 4 7 11 8 3 4 2 3 6 3 6 6 13 8 4 9 4 2 2 5 8 12 20 29 33 36 40 44 44 46 45 45 42 41 40 39 39 39 37 36 33 31 29 26 27 28 27 28
6 4 8 9 11 6 4 2 5 7 5 5 5 13 14 2 6 5 4 4 7 6 9 13 18 19 23 38 43 44 46 46 45 44 43 41 39 39 39 38 35 33 31 29 29 29 28 27 28
10 7 11 10 9 8 7 1 7 10 10 11 7 9 9 5 5 3 2 2 3 1 3 9 1 15 42 31 38 46 49 48 45 43 43 43 42 41 41 38 36 33 30 29 29 29 27 26 27
7 6 9 10 10 14 6 3 7 10 11 4 4 8 12 4 4 3 1 4 2 2 5 15 12 12 14 25 25 26 33 42 44 42 43 43 42 43 41 40 37 31 29 31 29 28 27 26 26
4 8 11 12 12 12 6 5 2 4 10 6 8 13 7 3 3 5 3 4 6 4 4 9 17 20 20 20 21 21 26 35 40 41 41 43 38 39 38 33 35 31 30 32 30 28 26 26 24
11 11 14 6 9 9 9 7 11 7 11 13 14 14 12 9 7 7 6 3 4 5 9 9 20 18 27 25 17 23 24 25 35 40 37 36 37 34 30 30 32 29 29 32 30 28 26 22 19
12 17 12 9 10 10 14 13 10 13 17 16 14 15 6 10 8 6 6 6 5 4 6 10 13 21 22 20 19 20 31 31 33 38 40 32 35 35 29 29 28 25 29 28 27 26 21 16 16
13 17 17 13 12 12 15 16 15 17 21 18 14 10 5 9 6 5 6 9 8 7 5 12 14 15 18 18 25 31 30 34 36 40 35 35 33 33 31 31 30 27 27 28 26 24 17 16 13
17 18 16 16 15 16 14 19 20 23 21 19 12 7 8 7 2 2 2 5 8 6 5 8 10 12 15 19 22 34 37 39 38 39 37 34 34 33 32 30 30 29 27 28 26 22 18 16 14
7 12 16 15 15 16 16 22 19 23 14 9 10 12 9 7 3 3 5 6 5 6 6 7 8 9 12 17 25 28 36 44 38 35 42 34 32 35 34 30 28 28 28 27 24 21 19 17 15
12 15 17 18 18 19 15 22 22 21 6 10 11 11 9 7 5 4 4 5 5 7 8 9 9 9 12 16 24 30 39 47 41 38 40 38 36 35 33 30 27 27 26 24 23 21 18 16 15
10 14 15 6 8 11 11 16 7 4 6 12 10 10 9 8 6 4 3 4 4 6 8 9 9 7 9 14 27 38 41 46 43 37 41 41 36 34 38 28 25 25 25 24 22 21 19 17 15
14 15 15 11 10 10 13 15 5 6 8 12 10 11 10 8 7 7 5 5 5 5 8 9 8 7 9 6 16 40 45 44 43 40 36 46 38 33 31 27 23 24 22 21 21 19 19 18 16
16 18 15 14 5 10 14 17 16 10 7 13 11 11 11 10 9 8 6 6 5 5 7 10 9 9 12 12 17 28 40 37 37 40 35 41 38 34 32 25 22 22 21 20 19 18 17 16 13
15 14 15 12 2 7 13 17 16 16 11 12 11 11 12 11 7 8 8 7 6 6 8 10 11 10 15 20 13 19 23 33 28 35 38 41 36 33 29 24 22 22 21 19 18 17 17 14 12
21 19 17 16 13 11 17 18 14 16 15 10 10 12 12 11 11 10 10 10 9 9 9 10 12 12 15 19 18 18 20 23 28 31 29 28 32 31 30 25 24 22 19 18 18 16 16 11 16
21 22 18 19 14 13 19 20 20 17 11 9 9 10 10 12 13 13 13 14 12 11 11 12 12 17 18 22 23 24 22 20 21 25 27 26 28 26 28 24 23 22 20 21 21 19 18 13 16
21 18 20 17 15 11 3 12 14 11 16 17 15 11 12 12 13 13 14 16 16 14 12 12 13 16 18 24 23 29 21 25 18 24 28 30 29 29 30 24 22 21 20 19 21 20 18 16 15
17 15 17 16 16 16 19 10 11 10 12 12 13 12 12 12 14 15 15 18 18 16 15 13 14 17 19 20 21 23 19 22 20 22 23 28 32 32 29 25 23 19 19 18 17 20 21 21 19
7 13 10 8 9 13 17 13 10 13 11 6 4 2 10 13 15 15 16 18 19 19 17 17 17 18 19 21 21 23 22 23 20 23 22 25 30 29 37 33 21 21 18 17 21 20 21 22 21
14 9 6 8 7 8 7 12 16 7 10 11 11 8 8 12 15 16 17 16 20 21 20 18 19 20 20 21 22 25 22 23 23 23 23 25 23 29 34 34 34 33 27 22 22 22 23 23 24
20 17 7 9 10 7 9 8 11 9 11 10 7 5 7 12 15 18 18 17 22 23 22 21 21 21 22 22 22 24 25 22 24 25 25 23 23 23 24 26 28 33 32 30 29 28 22 21 24
13 16 19 18 14 7 7 7 8 9 10 10 11 4 9 12 15 19 19 20 22 24 24 24 24 23 24 26 25 24 24 25 26 24 24 23 22 21 20 21 24 25 28 29 25 24 26 25 27
19 4 8 11 9 15 12 13 7 9 11 9 8 11 6 11 15 17 18 21 22 24 24 24 25 26 26 28 29 29 28 27 27 28 28 26 24 23 23 26 25 28 28 26 26 28 27 27 29
13 16 13 9 12 11 11 9 9 13 11 9 8 6 4 9 14 16 17 22 23 23 25 26 27 27 28 29 29 29 30 31 31 30 29 29 26 26 27 28 28 30 32 31 31 32 30 29 30
9 8 18 13 17 10 13 13 1 12 9 6 10 5 1 5 11 13 15 19 24 25 27 28 28 29 28 28 29 30 29 30 32 33 32 30 31 29 30 30 31 32 33 34 33 32 31 31 32
Wind_Direction
170 188 209 234 234 243 173 158 323 248 233 274 310 276 309 311 294 317 45 181 192 207 193 202 203 199 187 186 184 179 177 171 168 162 158 156 155 151 145 142 137 135 132 129 126 123 124 122 122
172 189 222 253 254 231 135 117 225 282 292 304 283 258 258 278 271 271 278 193 203 211 207 202 206 202 193 186 184 179 173 166 165 163 155 155 156 152 148 145 139 139 134 132 130 126 127 126 123
185 213 257 247 242 260 249 162 288 327 275 250 270 259 297 271 243 268 216 163 216 225 214 210 213 203 191 185 186 180 174 170 167 162 156 157 156 149 146 147 142 140 135 132 132 130 128 129 127
201 197 208 244 218 197 247 215 330 287 241 236 280 269 228 261 253 243 139 263 237 241 221 215 213 205 192 185 186 180 171 172 169 163 160 158 157 152 150 148 144 137 137 133 137 131 132 132 129
214 252 241 241 230 242 234 309 325 295 289 255 223 270 262 243 243 240 296 310 268 246 232 236 226 212 197 187 183 181 177 172 168 164 162 159 157 155 153 150 145 142 142 141 138 134 135 134 132
204 278 244 237 206 204 246 266 296 274 279 267 252 269 271 188 234 234 306 323 269 258 253 267 214 270 228 190 181 181 175 171 168 166 164 161 161 158 153 149 146 144 148 145 139 138 137 136 132
254 236 267 275 244 226 222 188 262 284 277 263 244 263 281 222 224 234 11 35 234 192 209 219 172 236 243 205 185 184 177 173 168 166 164 164 164 158 152 149 150 154 151 147 145 143 138 137 133
255 260 255 239 237 234 179 268 275 282 292 25 231 262 276 75 190 226 170 101 143 151 162 182 198 223 211 221 191 193 187 175 166 164 164 165 165 156 155 156 158 158 154 155 150 146 143 138 138
234 241 249 247 235 236 177 276 315 298 268 233 230 268 312 225 225 262 253 163 150 137 174 191 208 186 190 209 208 204 205 180 164 162 164 164 155 153 158 157 160 159 158 159 154 151 146 142 143
221 235 252 273 252 247 269 256 293 268 259 262 254 259 244 247 253 268 287 264 212 180 156 187 187 198 201 216 220 220 204 181 162 162 163 161 156 156 160 159 160 161 164 163 159 155 149 137 146
218 247 258 239 253 239 278 277 278 274 277 278 305 306 237 234 241 267 282 288 296 277 179 169 196 200 206 216 210 205 197 192 173 166 161 164 158 158 155 158 152 153 161 160 158 155 151 157 156
243 242 262 251 265 257 261 274 270 271 274 302 299 292 247 225 240 268 283 290 287 275 264 166 184 195 198 198 199 195 181 186 175 166 169 164 161 157 156 160 154 156 157 163 164 165 168 164 164
240 254 256 255 257 252 267 265 270 276 280 285 270 257 249 241 226 250 274 280 275 264 200 200 172 185 199 196 190 186 186 190 180 173 172 170 161 160 159 161 157 158 164 167 170 173 169 161 164
260 259 260 259 251 249 257 266 265 265 279 277 246 244 231 221 193 246 244 245 226 247 212 207 192 187 194 201 205 196 193 184 182 174 172 172 166 160 157 162 163 161 171 172 175 171 166 160 166
256 260 258 251 255 257 269 265 249 262 259 267 248 242 234 224 210 220 261 235 216 224 225 230 217 206 217 221 218 208 193 187 181 177 172 172 167 162 154 163 170 168 171 169 169 165 163 161 176
242 242 256 236 244 224 224 269 186 200 230 283 253 236 238 229 239 224 219 212 202 207 219 214 214 218 223 240 238 215 200 188 183 177 173 177 173 169 162 169 173 166 167 168 167 169 162 169 180
235 255 240 256 214 247 221 260 152 196 272 285 270 246 235 222 222 236 200 201 190 214 209 196 190 194 195 161 231 209 188 181 178 178 167 171 175 173 166 172 173 169 163 170 169 172 170 170 186
234 234 252 260 209 231 236 252 267 257 263 276 271 245 238 229 217 214 202 193 189 192 196 185 187 173 164 110 118 153 150 156 166 172 172 176 176 179 169 170 172 169 167 171 172 175 177 178 181
271 262 252 260 285 258 254 269 269 272 268 266 253 241 238 229 203 195 190 185 176 188 184 184 177 167 147 132 101 118 124 142 141 149 164 175 175 177 168 174 175 174 176 177 175 180 181 167 178
246 249 252 261 265 272 270 274 271 271 269 271 262 237 237 215 189 192 189 185 189 194 189 178 177 175 166 140 135 121 126 136 144 163 172 179 173 175 175 175 174 178 177 179 182 182 191 168 181
239 244 251 254 263 260 270 273 263 253 242 232 247 257 235 222 192 189 181 189 193 194 196 186 175 185 181 162 148 143 143 147 162 176 185 182 182 179 181 184 180 181 186 192 188 190 200 187 196
245 232 250 263 257 261 161 278 286 248 262 259 254 229 236 218 197 185 183 183 191 198 194 187 173 176 179 176 165 164 161 162 174 174 181 187 195 198 186 181 181 187 193 194 195 201 209 204 202
246 262 252 252 256 257 252 255 268 248 256 252 250 237 224 212 199 184 192 176 185 191 192 186 177 174 177 179 169 161 163 170 168 172 174 185 199 206 195 191 191 193 202 203 206 209 216 220 220
223 235 235 237 248 244 242 239 255 244 244 248 224 259 202 205 199 182 186 172 175 185 187 183 181 180 181 181 181 179 178 169 174 174 176 184 182 185 200 214 215 217 216 218 222 222 224 226 229
227 208 212 222 213 244 189 215 241 232 257 262 284 263 202 201 195 187 184 179 175 182 189 187 184 181 186 188 188 183 180 179 179 188 183 183 185 187 189 198 204 213 222 231 236 232 231 234 234
201 212 221 226 235 241 176 223 233 242 259 250 257 254 196 197 196 197 187 187 179 183 189 192 191 190 189 188 188 193 195 187 186 191 193 190 188 195 196 204 220 227 227 239 240 238 244 244 244
196 217 235 262 264 269 235 215 273 240 240 238 254 240 223 207 196 198 189 194 183 184 188 194 194 196 197 198 197 198 202 201 200 202 202 200 204 208 208 211 216 221 227 234 243 246 246 246 249
244 216 193 223 243 243 237 240 248 210 234 239 230 247 226 203 195 196 192 191 193 184 187 196 200 197 198 199 199 201 205 208 212 211 211 212 214 218 221 222 223 226 230 236 241 245 248 251 254
206 234 242 274 233 255 262 258 182 240 254 276 313 258 249 209 195 193 194 187 195 187 185 192 203 201 199 199 202 204 205 210 213 215 216 217 218 219 223 227 231 234 234 238 242 246 250 251 255
307 263 226 235 237 230 254 258 209 229 264 270 312 282 276 205 188 186 193 188 191 196 187 191 199 204 205 203 202 206 208 209 212 215 219 220 223 228 231 232 232 233 235 239 241 244 244 246 252